Starlink 32557

operational
NORAD ID: 62127 Int'l Des: 2024-222 Owner: SPXS Country: US Constellation: starlink
LEOCIRCULAR

Über Starlink 32557

Beschreibung wird geladen...

Live-Position

3D-Globus wird geladen...

Nächste Überflüge

Höhenverlauf

Altitude vs Time

uPlot chart will show altitude changes over time

Zweizeiliger Elementsatz

1 62127U 24222P 26036.08669774 .00028780 00000-0 10497-2 0 9992
2 62127 43.0020 309.7052 0001446 289.9274 70.1422 15.27629228 67936
Epoch: 5. Feb. 2026 • Age: 9 hours

Aktueller Status

Höhe 482.0 km
Geschwindigkeit 7.63 km/s
Subsatellitenpunkt 2.43°N, 1.77°E
Startdatum 27. Nov. 2024
Alter 1.1 years
Typ internet

Technische Details

Klassifizierung Payload
Masse 730.00 kg
Trockenmasse 700.00 kg
Gesamtmasse 730.00 kg
Länge 0.30 m
Durchmesser 4.10 m
Spannweite 29.00 m
Form Box + pan
Hersteller SPXS
Bus-Typ Starlink V2M
Phasenstatus In Orbit
Besitzer/Staat SPXS/US

Große Konstellationen

Loading constellations...